User: anonymous   Login
Location: Unspecified
(0.0000°N, 0.0000°E)
Time: 08:05:12
(UTC+00:00)
Language:

Kosmos-1333 - Orbit

View from above orbital plane
View from above orbital plane
View from above satellite
View from above satellite

Ground track
Ground track

The orbit data is extracted from the following two-line orbital elements,

1 13033U 82003A   19345.84250640 -.00000015 +00000-0 -32034-4 0  9998
2 13033 082.9409 122.9619 0031566 329.7706 138.5035 13.73225877899601
Epoch (UTC): 11 December 2019 20:13:12
Eccentricity: 0.0031566
inclination: 82.9409°
perigee height: 965 km
apogee height: 1011 km
right ascension of ascending node: 122.9619°
argument of perigee: 329.7706°
revolutions per day: 13.73225877
mean anomaly at epoch: 138.5035°
orbit number at epoch: 89960

The dashed part of the orbit path shows where the satellite is in the earth's shadow,  

DLR